Weather History for KMLF - May, 2013

Change the Weather History Date:

Wednesday, May 8, 2013

  Actual Average Record
Temperature  
Mean Temperature 50 °F -  
Max Temperature 66 °F 69 °F 82 °F (2001)
Min Temperature 34 °F 35 °F 28 °F (2002)
Degree Days  
Heating Degree Days 15    
Moisture  
Dew Point 33 °F    
Average Humidity 56    
Maximum Humidity 92    
Minimum Humidity 17    
Precipitation  
Precipitation 0.01 in - - ()
Sea Level Pressure  
Sea Level Pressure 29.98 in    
Wind  
Wind Speed 4 mph (South)    
Max Wind Speed 13 mph    
Max Gust Speed -    
Visibility 10 miles    
Events      
Averages and records for this station are not official NWS values.
T = Trace of Precipitation, MM = Missing Value Source: NWS Daily Summary

Daily Weather History Graph

Daily Weather History Graph

Search for Another Location

Airport or City:

Trip Planner

Search our weather history database for the weather conditions in past years. The results will help you decide how hot, cold, wet, or windy it might be!

Date:

Astronomy

May. 08, 2013 Rise Set
Actual Time 6:27 AM MDT 8:30 PM MDT
Civil Twilight 5:57 AM MDT 8:59 PM MDT
Nautical Twilight 5:22 AM MDT 9:35 PM MDT
Astronomical Twilight 4:43 AM MDT 10:14 PM MDT
Moon 5:36 AM MDT (5/8) 7:33 PM MDT (5/8)
Length of Visible Light 15h 01m
Length of Day
14h 03m
Waning Crescent, 2% of the Moon is Illuminated
May 8
Waning Crescent
May 9
New
May 17
First Quarter
May 24
Full
May 31
Last Quarter

Hourly Weather History & Observations

Time (MDT) Temp. Windchill Dew Point Humidity Pressure Visibility Wind Dir Wind Speed Gust Speed Precip Events Conditions
12:52 AM 37.9 °F - 33.1 °F 83% 29.94 in 10.0 mi Calm Calm - N/A   Clear
1:52 AM 37.0 °F 34.5 °F 33.1 °F 86% 29.93 in 10.0 mi South 3.5 mph - N/A   Overcast
2:52 AM 36.0 °F - 32.0 °F 86% 29.95 in 10.0 mi Calm Calm - N/A   Clear
3:52 AM 32.0 °F 28.7 °F 30.0 °F 92% 29.95 in 10.0 mi South 3.5 mph - N/A   Clear
4:52 AM 32.0 °F 28.7 °F 30.0 °F 92% 29.99 in 10.0 mi ESE 3.5 mph - N/A   Clear
5:52 AM 34.0 °F 27.2 °F 32.0 °F 92% 29.97 in 10.0 mi South 8.1 mph - N/A   Overcast
6:52 AM 35.1 °F 30.1 °F 32.0 °F 89% 30.00 in 10.0 mi SSE 5.8 mph - N/A   Overcast
7:52 AM 37.9 °F 34.4 °F 34.0 °F 86% 30.01 in 10.0 mi South 4.6 mph - N/A   Overcast
8:52 AM 45.0 °F 40.6 °F 36.0 °F 71% 30.02 in 10.0 mi South 8.1 mph - N/A   Overcast
9:52 AM 48.0 °F - 35.1 °F 61% 30.03 in 10.0 mi SSW 11.5 mph - N/A   Overcast
10:52 AM 51.1 °F - 34.0 °F 52% 30.03 in 10.0 mi South 11.5 mph - N/A   Mostly Cloudy
11:52 AM 54.0 °F - 34.0 °F 47% 30.04 in 10.0 mi SE 8.1 mph - N/A   Mostly Cloudy
12:52 PM 55.9 °F - 30.9 °F 39% 30.03 in 10.0 mi Calm Calm - N/A   Partly Cloudy
1:52 PM 60.1 °F - 30.9 °F 33% 30.01 in 10.0 mi Calm Calm - N/A   Clear
2:52 PM 62.1 °F - 32.0 °F 32% 29.99 in 10.0 mi North 5.8 mph - N/A   Scattered Clouds
3:52 PM 64.0 °F - 30.9 °F 29% 29.97 in 10.0 mi Variable 5.8 mph - N/A   Partly Cloudy
4:52 PM 64.9 °F - 30.0 °F 27% 29.95 in 10.0 mi NNE 4.6 mph - N/A   Overcast
5:52 PM 64.0 °F - 30.0 °F 28% 29.95 in 10.0 mi Variable 3.5 mph - N/A   Overcast
6:52 PM 60.1 °F - 33.1 °F 36% 29.95 in 10.0 mi SW 12.7 mph - 0.00 in   Overcast
7:52 PM 60.1 °F - 34.0 °F 38% 29.96 in 10.0 mi South 4.6 mph - N/A   Mostly Cloudy
8:52 PM 55.9 °F - 37.0 °F 49% 29.96 in 10.0 mi Calm Calm - N/A   Overcast
9:52 PM 51.1 °F - 33.1 °F 50% 29.98 in 10.0 mi NNW 5.8 mph - N/A   Partly Cloudy
10:52 PM 52.0 °F - 33.1 °F 49% 29.99 in 10.0 mi NNW 6.9 mph - N/A   Partly Cloudy
11:52 PM 54.0 °F - 37.9 °F 55% 29.98 in 10.0 mi North 8.1 mph - N/A   Partly Cloudy